Temp
62 63 62 62 62 62 62 61 62 62 62 63 62 63 63 64 64 63 63 63 63 63 63 63 63 62 62 62 62 62 62 62 62 63 63 61 59 58 57 58 58 58
61 61 61 62 63 63 62 62 61 61 61 62 62 62 63 62 62 61 60 60 61 61 62 62 63 62 62 61 61 61 61 61 61 62 62 61 61 60 58 58 57 57
60 60 59 59 60 59 60 60 60 61 61 61 61 61 61 60 59 60 59 59 59 59 59 60 60 61 61 61 60 60 59 59 59 60 60 60 60 59 59 59 58 57
59 59 59 59 59 58 59 59 60 61 60 60 60 59 59 59 59 58 58 57 58 58 58 59 59 59 59 59 59 59 59 58 58 58 58 58 58 58 58 58 57 57
57 58 58 58 58 58 59 58 57 57 57 57 58 58 58 57 57 57 57 57 57 57 57 57 57 57 57 57 58 57 57 56 57 57 56 55 56 56 56 56 55 54
57 57 57 57 57 57 57 56 56 56 56 56 55 56 56 56 55 55 56 55 56 55 55 56 56 56 56 56 56 56 55 54 55 54 53 53 53 54 54 53 53 52
55 55 55 56 56 55 55 55 55 55 54 54 54 55 54 54 54 54 54 54 54 54 54 54 54 54 55 55 54 54 54 54 53 52 51 51 51 51 52 52 51 51
54 54 54 55 55 54 53 53 53 53 52 53 53 54 54 53 53 53 53 53 53 53 53 54 54 54 54 54 53 52 52 51 50 50 50 50 50 49 50 50 50 49
54 53 54 54 54 53 52 52 52 52 52 51 52 52 53 53 52 52 52 52 52 52 52 52 53 52 52 52 51 50 50 50 50 49 48 48 48 48 49 49 48 48
53 53 53 53 53 53 51 52 52 52 52 51 52 52 52 52 52 52 51 51 51 51 52 52 52 52 52 51 51 50 50 49 50 49 49 48 48 48 49 48 48 47
52 53 52 51 51 51 50 51 51 51 51 51 51 51 51 51 51 51 50 50 50 50 50 50 50 50 50 50 50 50 50 50 49 49 49 49 48 48 45 47 47 46
51 51 50 50 50 50 50 50 50 50 49 50 50 49 50 50 50 50 50 49 49 50 50 49 50 49 49 49 49 50 50 49 49 49 49 48 48 47 47 46 46 45
50 49 49 49 49 49 49 49 49 48 48 48 48 48 48 48 48 48 48 49 49 49 49 49 49 49 49 49 49 49 48 48 48 47 47 47 46 45 45 45 45 44
48 48 48 48 48 48 48 48 48 47 47 47 46 46 46 46 46 46 47 47 48 48 49 49 48 48 48 49 48 47 46 46 46 46 45 45 45 45 45 44 44 43
48 47 48 48 47 47 46 46 46 45 45 45 45 45 46 46 46 46 45 45 46 46 46 47 47 47 48 47 45 44 44 44 44 44 44 43 44 44 44 44 44 44
47 46 46 46 46 45 45 44 44 44 44 44 44 44 45 45 45 45 45 45 45 45 45 46 46 47 44 41 40 42 42 42 42 42 43 43 42 42 42 42 42 43
45 45 45 44 45 44 43 42 42 43 43 43 43 43 43 43 43 43 44 44 44 44 44 44 45 45 41 42 42 41 41 41 40 41 41 42 42 42 41 42 42 43
44 44 43 43 43 42 42 42 41 41 41 42 41 41 42 43 42 42 43 43 44 44 43 44 44 41 42 42 41 41 40 40 40 40 41 41 42 42 42 42 42 42
43 42 42 42 42 40 41 40 37 38 38 38 38 41 41 40 41 41 41 42 43 42 42 42 43 42 42 42 41 41 40 40 40 40 40 40 41 41 41 41 41 40
42 41 40 41 40 39 39 39 37 38 38 39 38 39 39 39 39 39 40 41 41 40 40 41 41 41 41 41 40 40 40 40 39 39 39 40 40 41 41 41 41 40
40 39 39 38 39 38 36 36 37 36 36 36 37 38 37 37 38 37 38 37 39 38 39 39 40 40 40 40 40 40 40 39 39 39 39 39 40 41 41 41 41 41
39 39 38 38 37 36 35 35 35 35 35 36 37 37 37 37 37 37 36 36 37 37 37 38 39 40 40 40 40 40 40 38 37 38 38 38 39 40 40 41 41 41
38 37 35 34 34 34 33 33 33 33 34 36 35 35 35 36 35 36 36 36 36 36 36 37 37 39 39 39 39 39 38 36 36 35 36 37 37 39 40 41 41 41
37 35 33 32 32 31 31 31 32 33 34 35 34 33 33 34 35 36 36 36 35 35 35 35 35 36 38 38 39 39 37 35 35 35 35 35 36 38 39 40 40 37
35 32 31 30 29 29 30 29 30 31 33 33 33 33 33 35 35 35 35 35 35 34 34 34 35 36 38 38 39 39 38 35 35 34 34 35 36 36 38 39 39 38
31 30 29 28 27 28 28 29 31 32 32 31 31 32 33 34 34 33 32 33 34 35 35 35 35 35 36 38 38 39 39 37 35 34 33 33 34 35 35 36 37 38
MSLP
1020.56 1020.60 1020.74 1020.82 1020.88 1020.92 1021.02 1021.12 1021.10 1021.16 1021.14 1021.06 1021.06 1020.98 1020.92 1020.78 1020.78 1020.84 1020.82 1020.76 1020.72 1020.70 1020.62 1020.58 1020.56 1020.54 1020.48 1020.44 1020.38 1020.36 1020.28 1020.16 1020.04 1019.84 1019.68 1019.70 1019.74 1019.78 1019.72 1019.64 1019.58 1019.48
1020.64 1020.78 1020.82 1020.84 1020.80 1020.92 1021.04 1021.12 1021.20 1021.26 1021.22 1021.18 1021.12 1021.12 1021.04 1021.04 1021.04 1021.02 1020.98 1020.94 1020.88 1020.82 1020.70 1020.60 1020.48 1020.44 1020.46 1020.44 1020.36 1020.30 1020.16 1020.04 1019.90 1019.70 1019.68 1019.60 1019.46 1019.42 1019.40 1019.44 1019.46 1019.36
1020.80 1020.88 1021.00 1021.08 1021.10 1021.26 1021.32 1021.30 1021.34 1021.32 1021.30 1021.32 1021.36 1021.30 1021.28 1021.30 1021.28 1021.14 1021.06 1021.02 1020.98 1020.92 1020.84 1020.70 1020.60 1020.46 1020.40 1020.32 1020.30 1020.30 1020.24 1020.16 1020.04 1019.86 1019.76 1019.60 1019.46 1019.42 1019.24 1019.24 1019.12 1019.08
1020.96 1021.04 1021.12 1021.20 1021.30 1021.42 1021.42 1021.44 1021.44 1021.38 1021.42 1021.44 1021.48 1021.56 1021.56 1021.48 1021.38 1021.26 1021.14 1021.08 1021.04 1020.98 1020.88 1020.80 1020.74 1020.64 1020.54 1020.46 1020.38 1020.28 1020.16 1020.10 1020.04 1019.98 1019.92 1019.74 1019.56 1019.40 1019.22 1019.16 1019.04 1019.04
1021.22 1021.26 1021.36 1021.44 1021.52 1021.56 1021.52 1021.64 1021.74 1021.80 1021.84 1021.82 1021.74 1021.76 1021.72 1021.68 1021.60 1021.46 1021.32 1021.26 1021.18 1021.08 1020.98 1020.92 1020.84 1020.76 1020.68 1020.58 1020.50 1020.42 1020.32 1020.26 1020.16 1020.12 1020.04 1019.86 1019.62 1019.54 1019.34 1019.30 1019.16 1019.10
1021.52 1021.56 1021.62 1021.70 1021.78 1021.84 1021.84 1021.96 1022.04 1022.10 1022.10 1022.06 1022.12 1022.06 1021.98 1021.92 1021.78 1021.64 1021.48 1021.40 1021.28 1021.18 1021.08 1020.98 1020.88 1020.80 1020.76 1020.72 1020.62 1020.50 1020.44 1020.40 1020.28 1020.28 1020.26 1020.10 1019.82 1019.64 1019.48 1019.36 1019.28 1019.10
1021.96 1022.00 1022.02 1022.00 1022.04 1022.14 1022.14 1022.28 1022.34 1022.36 1022.44 1022.48 1022.36 1022.26 1022.26 1022.16 1022.00 1021.84 1021.72 1021.58 1021.46 1021.32 1021.22 1021.12 1021.02 1020.94 1020.82 1020.74 1020.68 1020.58 1020.50 1020.46 1020.40 1020.40 1020.34 1020.14 1019.94 1019.70 1019.56 1019.38 1019.22 1019.04
1022.30 1022.40 1022.42 1022.32 1022.28 1022.36 1022.44 1022.52 1022.58 1022.62 1022.70 1022.64 1022.52 1022.46 1022.42 1022.36 1022.18 1022.08 1021.94 1021.82 1021.70 1021.54 1021.40 1021.24 1021.14 1021.04 1020.94 1020.90 1020.82 1020.74 1020.66 1020.62 1020.64 1020.56 1020.42 1020.20 1020.02 1019.80 1019.60 1019.44 1019.26 1019.12
1022.46 1022.60 1022.58 1022.50 1022.42 1022.48 1022.62 1022.70 1022.74 1022.80 1022.86 1022.86 1022.76 1022.66 1022.52 1022.40 1022.36 1022.24 1022.14 1022.00 1021.88 1021.74 1021.54 1021.42 1021.30 1021.20 1021.12 1021.06 1020.98 1020.88 1020.80 1020.66 1020.56 1020.50 1020.42 1020.26 1020.08 1019.80 1019.54 1019.36 1019.22 1019.02
1022.54 1022.66 1022.70 1022.62 1022.58 1022.68 1022.92 1022.94 1023.00 1022.98 1022.98 1022.96 1022.84 1022.70 1022.62 1022.50 1022.40 1022.32 1022.26 1022.14 1022.00 1021.82 1021.66 1021.52 1021.38 1021.26 1021.12 1021.00 1020.90 1020.78 1020.68 1020.54 1020.36 1020.26 1020.18 1020.06 1019.90 1019.64 1019.42 1019.28 1019.10 1018.88
1022.70 1022.84 1022.96 1023.00 1023.00 1023.06 1023.20 1023.20 1023.20 1023.16 1023.12 1023.06 1022.98 1022.84 1022.74 1022.60 1022.46 1022.38 1022.30 1022.18 1022.10 1021.96 1021.80 1021.66 1021.52 1021.38 1021.26 1021.10 1020.90 1020.72 1020.58 1020.40 1020.26 1020.12 1019.96 1019.80 1019.66 1019.54 1019.38 1019.24 1018.98 1018.78
1022.96 1023.12 1023.24 1023.28 1023.32 1023.36 1023.44 1023.42 1023.40 1023.36 1023.34 1023.18 1023.16 1023.04 1022.88 1022.76 1022.66 1022.54 1022.48 1022.36 1022.24 1022.06 1021.92 1021.76 1021.58 1021.44 1021.30 1021.08 1020.86 1020.64 1020.46 1020.28 1020.08 1019.90 1019.72 1019.58 1019.46 1019.38 1019.26 1019.10 1018.92 1018.62
1023.18 1023.38 1023.48 1023.54 1023.58 1023.62 1023.58 1023.54 1023.52 1023.52 1023.46 1023.42 1023.34 1023.26 1023.10 1022.98 1022.84 1022.74 1022.58 1022.46 1022.26 1022.04 1021.90 1021.72 1021.54 1021.38 1021.20 1020.98 1020.78 1020.60 1020.44 1020.26 1020.06 1019.84 1019.64 1019.46 1019.28 1019.20 1019.10 1018.96 1018.74 1018.50
1023.36 1023.54 1023.60 1023.68 1023.70 1023.64 1023.64 1023.62 1023.64 1023.60 1023.60 1023.54 1023.44 1023.34 1023.22 1023.10 1022.98 1022.82 1022.64 1022.48 1022.24 1022.06 1021.86 1021.66 1021.52 1021.34 1021.10 1020.88 1020.76 1020.68 1020.52 1020.30 1020.08 1019.80 1019.52 1019.26 1019.00 1018.80 1018.72 1018.60 1018.42 1018.22
1023.44 1023.64 1023.68 1023.74 1023.78 1023.78 1023.80 1023.82 1023.78 1023.76 1023.70 1023.60 1023.48 1023.36 1023.22 1023.08 1022.94 1022.84 1022.66 1022.44 1022.20 1022.00 1021.82 1021.66 1021.50 1021.30 1021.04 1020.90 1020.90 1020.80 1020.62 1020.32 1020.02 1019.76 1019.48 1019.14 1018.80 1018.52 1018.32 1018.18 1018.00 1017.78
1023.54 1023.74 1023.82 1023.84 1023.88 1023.94 1023.96 1023.98 1023.90 1023.86 1023.78 1023.66 1023.54 1023.36 1023.24 1023.12 1023.00 1022.84 1022.64 1022.40 1022.14 1021.92 1021.74 1021.58 1021.36 1021.14 1020.96 1020.92 1020.96 1020.92 1020.66 1020.34 1019.98 1019.68 1019.36 1019.00 1018.62 1018.22 1017.92 1017.80 1017.62 1017.36
1023.64 1023.82 1023.86 1023.92 1023.96 1024.04 1024.12 1024.08 1024.02 1023.96 1023.86 1023.70 1023.54 1023.40 1023.28 1023.10 1022.92 1022.72 1022.50 1022.28 1022.12 1021.90 1021.68 1021.48 1021.26 1020.98 1020.82 1020.78 1020.76 1020.72 1020.60 1020.28 1019.94 1019.54 1019.18 1018.78 1018.42 1018.06 1017.66 1017.28 1017.02 1016.82
1023.84 1023.94 1024.02 1024.04 1024.10 1024.20 1024.26 1024.18 1024.10 1024.00 1023.84 1023.70 1023.56 1023.38 1023.20 1023.04 1022.86 1022.62 1022.42 1022.20 1021.94 1021.74 1021.58 1021.34 1021.14 1020.90 1020.72 1020.60 1020.56 1020.48 1020.40 1020.20 1019.80 1019.38 1018.86 1018.44 1018.04 1017.70 1017.28 1016.92 1016.58 1016.26
1024.06 1024.18 1024.24 1024.22 1024.28 1024.36 1024.32 1024.24 1024.14 1024.06 1023.88 1023.76 1023.58 1023.34 1023.16 1023.00 1022.80 1022.60 1022.38 1022.14 1021.92 1021.68 1021.48 1021.22 1020.92 1020.68 1020.56 1020.40 1020.30 1020.22 1020.08 1019.98 1019.58 1019.12 1018.68 1018.14 1017.72 1017.36 1017.04 1016.66 1016.30 1015.96
1024.26 1024.36 1024.40 1024.42 1024.44 1024.38 1024.32 1024.26 1024.14 1023.92 1023.80 1023.72 1023.50 1023.30 1023.18 1023.04 1022.86 1022.66 1022.38 1022.14 1021.98 1021.78 1021.38 1021.00 1020.74 1020.46 1020.28 1020.12 1020.00 1019.88 1019.76 1019.66 1019.32 1018.88 1018.38 1017.84 1017.40 1017.04 1016.68 1016.32 1015.98 1015.70
1024.42 1024.50 1024.52 1024.48 1024.42 1024.42 1024.40 1024.32 1024.14 1024.00 1023.88 1023.70 1023.48 1023.36 1023.20 1023.00 1022.74 1022.46 1022.22 1022.12 1021.86 1021.56 1021.22 1020.76 1020.42 1020.24 1020.04 1019.80 1019.68 1019.56 1019.42 1019.34 1019.00 1018.60 1018.04 1017.48 1016.98 1016.62 1016.26 1015.82 1015.52 1015.30
1024.54 1024.60 1024.64 1024.62 1024.66 1024.60 1024.54 1024.40 1024.22 1024.12 1023.98 1023.72 1023.52 1023.34 1023.16 1022.92 1022.62 1022.42 1022.12 1021.80 1021.54 1021.34 1021.02 1020.44 1019.90 1019.90 1019.82 1019.52 1019.34 1019.26 1019.16 1018.96 1018.64 1018.24 1017.70 1017.14 1016.64 1016.24 1015.90 1015.50 1015.14 1014.86
1024.72 1024.80 1024.94 1025.02 1024.90 1024.80 1024.72 1024.62 1024.48 1024.30 1024.06 1023.72 1023.54 1023.30 1023.04 1022.78 1022.50 1022.16 1021.80 1021.52 1021.22 1021.08 1020.86 1020.32 1019.64 1019.40 1019.50 1019.32 1019.06 1019.04 1018.94 1018.64 1018.30 1017.94 1017.46 1016.90 1016.36 1015.84 1015.50 1015.12 1014.70 1014.44
1024.98 1025.12 1025.24 1025.20 1025.16 1025.20 1025.04 1024.84 1024.68 1024.36 1024.04 1023.80 1023.68 1023.32 1022.96 1022.64 1022.32 1021.76 1021.38 1021.18 1021.06 1020.84 1020.62 1020.36 1019.60 1018.88 1018.92 1018.94 1018.74 1018.56 1018.68 1018.48 1018.02 1017.64 1017.08 1016.54 1015.92 1015.48 1015.06 1014.72 1014.24 1013.88
1025.20 1025.36 1025.36 1025.40 1025.38 1025.28 1025.10 1024.92 1024.60 1024.24 1023.94 1023.72 1023.56 1023.34 1022.94 1022.44 1022.10 1021.78 1021.26 1020.86 1020.72 1020.70 1020.32 1020.08 1019.46 1018.70 1018.32 1018.38 1018.34 1018.18 1018.12 1018.14 1017.86 1017.38 1016.82 1016.14 1015.66 1015.08 1014.68 1014.22 1013.76 1013.46
1025.40 1025.44 1025.46 1025.46 1025.36 1025.22 1025.12 1024.90 1024.58 1024.18 1023.92 1023.82 1023.66 1023.46 1022.96 1022.48 1022.20 1021.98 1021.58 1020.82 1020.36 1020.26 1020.02 1019.70 1019.32 1018.72 1018.16 1017.88 1017.94 1017.72 1017.58 1017.54 1017.50 1017.20 1016.60 1016.00 1015.50 1014.98 1014.38 1013.80 1013.42 1012.92
Wind_Speed
3 3 2 2 2 1 1 2 2 2 3 3 3 4 4 4 4 5 6 6 6 7 7 7 7 7 6 6 6 6 7 8 9 9 8 6 6 7 9 10 10 10
4 3 2 1 1 1 1 1 2 2 3 3 4 4 4 4 5 5 5 5 6 6 7 7 7 8 8 7 7 8 8 8 9 6 7 9 9 8 9 8 8 8
4 4 4 4 3 3 2 2 2 2 3 3 4 4 4 4 5 5 5 5 5 5 6 6 6 7 7 7 7 7 7 8 9 9 9 9 9 9 9 10 10 11
6 5 4 4 4 4 4 3 3 3 3 4 5 5 5 4 5 5 5 5 5 5 5 5 6 6 6 7 7 7 8 8 7 7 8 8 9 9 9 8 9 9
6 6 6 5 5 5 4 4 5 5 5 5 4 5 5 5 5 5 5 5 5 5 5 5 5 6 6 6 6 7 7 7 7 7 8 9 8 8 8 8 9 10
7 6 6 6 6 5 5 5 5 5 5 5 5 5 5 6 5 5 6 6 5 5 6 6 6 5 5 5 6 6 6 7 7 7 8 9 9 9 7 8 10 11
6 6 6 5 5 5 5 5 4 5 5 4 4 4 5 5 5 6 6 6 6 6 6 6 6 6 5 5 5 6 6 7 7 8 9 10 9 10 9 9 10 10
6 5 4 4 5 5 5 5 5 4 5 4 4 4 4 4 5 5 5 6 6 6 6 6 6 6 6 5 6 6 7 5 6 9 9 10 9 10 10 8 9 11
4 4 4 4 5 5 6 6 5 5 4 5 4 4 4 4 5 5 5 5 5 5 6 6 6 6 5 6 6 7 7 7 7 8 9 9 10 11 10 9 10 10
5 5 6 7 7 6 7 6 5 4 4 5 5 4 5 4 4 5 5 5 5 6 6 6 6 6 6 5 7 7 7 8 8 7 7 9 10 10 10 9 10 11
7 6 6 7 6 5 6 5 5 5 5 5 5 6 6 5 5 5 5 5 5 6 7 6 6 6 7 7 7 6 7 7 8 8 8 9 9 10 10 10 11 11
6 5 6 6 6 5 5 5 4 5 5 5 5 6 6 5 6 5 5 6 6 6 6 6 6 6 7 7 7 7 7 8 8 8 8 8 9 10 10 9 10 11
5 5 5 5 5 4 4 4 4 4 4 5 5 5 5 5 5 5 4 5 6 5 6 6 6 6 6 7 7 7 7 8 8 9 9 9 8 9 9 10 11 11
5 4 4 4 4 4 4 4 4 4 4 4 3 4 3 4 5 6 5 5 5 5 6 6 6 6 6 6 6 7 7 8 8 9 10 10 9 9 9 10 10 11
4 3 3 4 4 3 4 4 4 3 3 3 3 4 4 4 5 5 6 6 5 5 5 5 5 5 4 4 6 8 8 9 9 9 9 10 11 10 9 10 10 10
4 4 3 3 4 4 5 5 4 5 5 4 5 4 4 5 5 5 6 6 6 6 5 5 5 5 6 8 7 7 9 8 9 9 9 10 10 11 10 9 10 11
4 4 3 4 4 4 4 4 5 5 5 6 5 5 5 5 5 6 5 6 6 6 6 6 6 5 9 9 10 11 9 9 9 9 9 9 9 10 12 12 10 10
4 4 4 3 4 4 5 4 5 5 4 5 6 5 5 6 6 6 6 6 6 6 7 6 6 8 12 11 11 12 11 9 9 9 9 9 9 10 10 10 12 11
3 4 3 3 4 4 4 4 3 4 3 4 5 6 7 6 7 7 7 7 7 8 8 8 8 9 12 13 13 13 13 12 9 9 10 11 10 11 11 12 11 11
3 4 4 4 4 5 5 6 4 5 5 6 4 5 6 7 6 9 8 7 8 9 10 9 9 10 13 14 14 14 13 12 10 11 11 12 12 11 11 12 11 11
4 4 4 5 5 4 3 4 4 4 5 4 4 4 5 7 8 8 9 7 9 8 9 10 9 12 14 15 14 13 14 13 10 10 11 12 12 11 12 12 12 11
3 4 5 5 5 4 4 4 4 4 6 6 4 5 5 6 6 6 8 9 8 8 10 13 12 13 14 15 15 13 16 11 9 10 11 12 13 12 12 11 11 11
3 3 4 3 4 4 5 5 6 7 5 4 6 6 6 7 8 8 8 8 10 8 9 12 13 14 13 16 17 16 12 9 9 9 11 12 12 12 11 12 12 11
3 3 3 3 4 5 5 5 5 5 4 4 6 8 9 8 8 9 9 7 8 10 10 11 14 17 17 15 16 16 12 10 9 9 11 11 11 12 10 10 13 17
3 2 3 3 4 4 5 7 7 6 5 5 6 7 8 7 7 9 11 11 9 9 13 13 12 16 19 17 16 16 12 7 9 9 10 11 10 12 11 11 11 12
3 4 5 6 7 7 7 6 6 6 7 7 8 6 7 8 8 8 12 13 12 10 11 12 13 14 16 20 17 17 16 9 7 10 10 11 11 11 12 11 12 12
Wind_Direction
156 161 171 180 192 196 242 260 290 286 284 290 288 300 303 311 324 320 313 306 299 296 293 287 285 283 284 282 275 274 273 276 278 282 286 271 256 251 255 256 251 247
96 80 80 72 100 81 25 357 333 319 313 303 312 315 310 314 317 311 307 304 300 295 296 292 287 285 283 283 285 282 281 280 278 280 279 278 279 275 270 267 265 262
80 78 71 56 48 38 17 7 346 332 325 328 316 312 319 324 314 311 307 307 303 300 299 298 298 296 294 290 289 286 282 285 285 286 285 284 282 278 277 276 272 269
65 61 59 57 47 34 27 21 11 4 358 346 350 340 322 317 319 319 319 315 310 310 308 306 304 303 299 296 293 287 286 285 288 290 288 287 283 284 283 282 279 279
57 55 50 48 42 33 34 29 23 14 4 352 345 346 338 337 330 331 330 330 322 316 314 314 312 309 309 302 299 294 293 291 291 292 288 284 285 285 285 287 284 281
52 53 51 49 42 36 40 32 28 15 6 1 354 338 342 335 334 334 334 332 331 322 317 316 313 311 311 306 301 295 295 292 292 295 291 286 286 284 285 280 278 276
49 45 48 49 51 44 45 37 31 21 15 352 336 349 346 341 339 344 338 335 330 325 323 319 317 314 312 307 299 294 293 292 295 293 287 285 285 285 282 281 282 280
55 49 45 47 58 52 44 39 29 23 5 349 351 350 346 339 345 342 340 334 328 323 318 317 313 313 314 311 304 302 295 295 291 290 289 286 287 285 284 283 281 278
62 50 40 50 55 48 36 28 18 11 5 350 352 340 344 350 342 341 335 330 322 320 318 313 312 309 307 300 294 289 289 287 286 288 287 288 286 285 286 286 282 277
60 47 42 38 43 39 30 23 11 6 357 353 353 348 349 346 340 337 333 326 325 320 321 318 314 311 302 295 291 288 287 286 285 283 281 286 288 287 289 287 285 285
51 43 40 38 38 32 25 16 10 4 1 353 354 349 348 345 342 342 334 332 328 327 323 320 315 312 310 304 300 295 291 289 289 288 285 281 282 285 286 285 283 279
56 45 39 36 31 29 18 14 6 5 357 356 355 345 341 343 343 337 338 326 322 320 314 310 312 308 303 300 297 299 296 292 288 285 285 286 286 285 283 280 281 280
56 46 37 31 25 14 6 4 4 356 352 350 342 330 332 330 328 322 318 314 307 309 305 305 305 304 301 300 302 302 302 297 294 290 284 283 277 277 279 278 275 277
55 39 33 23 11 6 4 2 352 351 345 329 322 317 320 316 316 317 307 301 300 296 299 299 296 296 294 300 309 309 305 296 290 289 287 284 280 276 274 274 272 272
54 40 27 17 15 5 5 359 353 346 334 322 320 313 308 305 300 301 300 294 287 285 286 285 284 283 288 303 310 305 300 297 293 287 285 285 284 282 276 274 275 273
50 40 24 14 18 8 360 353 342 341 330 320 313 306 303 300 297 288 283 282 289 288 283 281 276 276 271 275 282 291 298 293 290 285 284 283 284 285 281 273 271 273
43 27 10 15 7 357 351 338 335 328 316 313 311 304 297 297 288 286 288 292 291 288 285 279 274 274 277 279 286 289 291 293 291 290 283 278 277 279 283 285 277 271
29 12 6 0 359 347 331 324 307 302 297 303 301 298 304 294 290 295 297 293 287 284 284 287 285 277 279 284 289 292 289 288 290 287 282 280 277 276 279 283 284 283
22 8 359 350 342 332 315 315 313 313 315 322 318 312 304 305 307 305 300 299 298 300 298 291 287 287 289 290 292 291 287 288 285 281 281 278 277 276 278 281 283 285
12 357 354 347 338 327 323 323 324 322 326 315 309 314 314 312 308 304 301 305 306 300 295 295 289 294 293 294 294 293 288 289 284 283 278 275 274 273 274 277 276 282
5 354 350 340 335 334 325 313 314 313 321 313 309 310 309 311 309 312 305 301 301 299 295 294 288 290 295 295 294 289 291 292 286 283 280 277 275 271 270 270 274 275
353 338 335 329 323 317 308 310 310 312 319 314 307 303 298 291 294 290 297 300 298 300 299 297 298 297 294 294 294 289 294 292 284 282 281 280 278 275 272 271 271 271
340 330 321 316 318 319 329 327 326 322 308 308 308 298 291 298 301 300 297 298 302 302 299 297 298 297 293 290 290 283 283 281 281 279 278 278 277 277 274 273 270 267
350 345 332 333 341 335 321 314 310 298 301 316 310 314 312 306 299 301 305 299 300 306 303 300 297 298 296 290 288 288 271 277 279 280 280 281 281 277 277 274 273 269
360 358 354 348 333 328 330 323 321 314 309 313 313 307 301 300 307 309 310 307 304 301 301 299 297 300 302 304 299 294 288 271 276 275 281 283 288 288 287 284 279 277
8 8 5 355 340 333 331 320 312 312 323 324 317 308 306 312 315 311 308 304 305 307 304 300 298 297 298 300 299 294 290 280 269 279 277 284 288 289 291 289 285 284